TimeCDT,TemperatureF,Dew PointF,Humidity,Sea Level PressureIn,VisibilityMPH,Wind Direction,Wind SpeedMPH,Gust SpeedMPH,PrecipitationIn,Events,Conditions,WindDirDegrees,DateUTC
12:56 AM,37.9,37.9,100,30.26,-9999.0,NNE,5.8,-,N/A,,Unknown,30,2013-05-05 05:56:00
1:56 AM,37.9,37.9,100,30.25,-9999.0,NNE,6.9,-,N/A,,Unknown,30,2013-05-05 06:56:00
2:56 AM,37.9,37.0,97,30.24,-9999.0,NNE,6.9,-,0.01,,Unknown,20,2013-05-05 07:56:00
3:56 AM,37.9,37.0,97,30.24,-9999.0,NNE,6.9,-,0.01,,Unknown,20,2013-05-05 08:56:00
4:56 AM,37.9,37.0,97,30.24,-9999.0,NNE,5.8,-,0.01,,Unknown,20,2013-05-05 09:56:00
5:56 AM,37.9,37.0,97,30.24,-9999.0,North,6.9,-,0.03,,Unknown,10,2013-05-05 10:56:00
6:56 AM,37.9,37.0,97,30.24,-9999.0,NNE,8.1,-,N/A,,Unknown,20,2013-05-05 11:56:00
7:56 AM,39.0,37.9,96,30.25,-9999.0,NNE,10.4,-,0.01,,Unknown,30,2013-05-05 12:56:00
8:56 AM,39.9,37.9,93,30.25,-9999.0,NNE,9.2,-,N/A,,Unknown,20,2013-05-05 13:56:00
9:56 AM,41.0,37.9,89,30.25,-9999.0,NNE,10.4,-,N/A,,Unknown,30,2013-05-05 14:56:00
10:56 AM,41.0,37.9,89,30.25,-9999.0,NNE,9.2,-,N/A,,Unknown,20,2013-05-05 15:56:00
11:56 AM,42.1,39.0,89,30.25,-9999.0,NNE,11.5,-,N/A,,Unknown,20,2013-05-05 16:56:00
12:56 PM,43.0,39.9,89,30.24,-9999.0,NNE,8.1,-,N/A,,Unknown,20,2013-05-05 17:56:00
1:56 PM,44.1,39.9,85,30.23,-9999.0,North,9.2,-,N/A,,Unknown,10,2013-05-05 18:56:00
2:56 PM,45.0,39.9,82,30.22,-9999.0,North,9.2,-,N/A,,Unknown,10,2013-05-05 19:56:00
3:56 PM,45.0,39.9,82,30.20,-9999.0,North,5.8,-,N/A,,Unknown,10,2013-05-05 20:56:00
4:56 PM,46.0,39.9,79,30.19,-9999.0,North,5.8,-,N/A,,Unknown,360,2013-05-05 21:56:00
5:56 PM,46.0,39.9,79,30.18,-9999.0,North,4.6,-,N/A,,Unknown,360,2013-05-05 22:56:00
6:56 PM,46.9,41.0,80,30.16,-9999.0,North,8.1,-,N/A,,Unknown,360,2013-05-05 23:56:00
7:56 PM,46.0,39.9,79,30.17,-9999.0,Calm,Calm,-,N/A,,Unknown,0,2013-05-06 00:56:00
8:56 PM,45.0,39.9,82,30.17,-9999.0,North,3.5,-,N/A,,Unknown,350,2013-05-06 01:56:00
9:56 PM,46.0,39.9,79,30.17,-9999.0,Calm,Calm,-,N/A,,Unknown,0,2013-05-06 02:56:00
10:56 PM,45.0,41.0,86,30.17,-9999.0,Calm,Calm,-,N/A,,Unknown,0,2013-05-06 03:56:00
11:56 PM,45.0,39.9,82,30.17,-9999.0,Calm,Calm,-,N/A,,Unknown,0,2013-05-06 04:56:00